Regional Weather Roundup
Issued by NWS

Current Version | Previous Version | Text Only | Print | Product List | Glossary On
Versions: 1 2 3 4 5 6 7 8 9 10 11 12 13 14 15 16 17 18 19 20 21 22 23 24 25 26 27 28 29 30 31 32 33 34 35 36 37 38 39 40 41 42 43 44 45 46 47 48 49 50
000
ASCA42 TJSJ 311911
RWRPR
PUERTO RICO/U.S. VIRGIN ISLANDS HOURLY WEATHER ROUNDUP
NATIONAL WEATHER SERVICE SAN JUAN PR
300 PM AST SAT JAN 31 2015

PRZ001-004-312000-
PUERTO RICO

CITY           SKY/WX    TMP DP  RH WIND       PRES   REMARKS
SAN JUAN LMM   MOSUNNY   82  72  69 E12       29.98F
PONCE          MOSUNNY   86  72  62 S12       29.94  HX  92
MAYAGUEZ       PTSUNNY   82  68  61 W8        30.02F
AGUADILLA      MOSUNNY   81  72  74 NE13G18   29.99F
CEIBA          MOSUNNY   82  72  69 E9        30.00F
$$

PRZ006-007-312000-
U.S. VIRGIN ISLANDS

CITY           SKY/WX    TMP DP  RH WIND       PRES   REMARKS
$$

HOURLY WEATHER ROUNDUP FOR THE NEWS MEDIA

CITY           SKY/WX    TMP DP  RH WIND       PRES   REMARKS
MIAMI          PTSUNNY   73  52  47 E15G22    30.20F
ORLANDO        MOSUNNY   69  46  43 E10G18    30.26F
NEW YORK       MOSUNNY   25  -1  32 NW14G33   30.09F WCI  13
NEWARK         SUNNY     25   0  33 W21G29    30.12S WCI  11
CHICAGO        CLOUDY    35  23  61 W10       30.16F WCI  27
HARTFORD       SUNNY     23  -8  25 NW16G35   29.83R WCI  10
BOSTON         MOSUNNY   21  -5  31 NW22G38   29.84S WCI   5
DALLAS         CLOUDY    53  36  52 SE14      30.10F
PHILADELPHIA   SUNNY     27   1  32 NW16      30.21F WCI  15



USA.gov is the U.S. government's official web portal to all federal, state and local government web resources and services.